Tracking 30303 objects as of 20-Apr-2025
HD Live streaming from Space Station
objects crossing your sky now

IRIDIUM 33 DEB

Track IRIDIUM 33 DEB now!
10-day predictions


NORAD ID: 46435
Int'l Code: 1997-051ABN
Perigee: 661.1 km
Apogee: 975.6 km
Inclination: 86.3 °
Period: 101.1 minutes
Semi major axis: 7189 km
RCS: Unknown
Launch date: September 14, 1997
Source: United States (US)
Launch site: TYURATAM MISSILE AND SPACE COMPLEX (TTMTR)

Note: This is SATELLITE DEBRIS
Your satellite tracking list
Your tracking list is empty




NASA's NSSDC Master Catalog

Two Line Element Set (TLE):
1 46435U 97051ABN 25090.85886520  .00009208  00000-0  31103-2 0  9991
2 46435  86.2797 303.0693 0218738  20.0293 356.2474 14.24181146 42685
Source of the keplerian elements: AFSPC